Location: Brusselsch Zeekanaal
(50.8667°N, 4.3667°E)
Time: 06:59:17
(UTC+00:00)

Cosmos 1809 Rocket - Pass Details

Date: 08 November 2025
Orbit: 941 x 963 km, 82.5° (Epoch: 11 December)

Event Time Altitude Azimuth Distance (km) Brightness Sun altitude
Rises 04:15:43 0° 193° (SSW) 3,611 7.3 -23.9°
Reaches altitude 10° 04:18:12 10° 195° (SSW) 2,667 6.6 -23.5°
Maximum altitude 04:24:19 76° 282° (WNW) 977 4.3 -22.6°
Drops below altitude 10° 04:30:26 10° 8° (N) 2,673 6.9 -21.6°
Sets 04:32:56 0° 10° (N) 3,620 7.6 -21.2°
